Wind_Speed
16 19 25 27 28 30 31 34 31 30 27 29 24 24 22 20 22 19 17 15 15 17 18 15 17 17 18 21 23 21 22 23 24 26 26 31 32 30 26 23 24 28 27 27 23 21 20 20 21
13 19 21 20 23 28 30 29 28 30 33 31 31 29 24 23 23 25 23 20 20 19 18 20 22 23 27 28 28 26 26 24 24 26 29 32 32 27 24 27 28 29 28 24 20 20 21 21 21
14 17 19 20 20 24 27 28 29 26 33 34 32 32 30 28 26 25 26 28 30 29 28 29 28 28 28 30 29 28 28 30 30 29 32 33 27 27 29 30 32 30 29 23 22 22 23 24 28
9 17 19 21 22 24 25 26 27 28 30 28 28 35 35 35 33 29 29 30 30 30 32 30 31 29 29 27 25 28 32 29 30 32 34 31 28 31 34 33 34 32 29 25 24 23 24 27 27
12 13 18 22 24 23 21 23 26 29 30 32 34 35 35 35 33 30 31 29 27 28 29 32 31 32 31 29 27 29 31 31 33 34 32 29 32 35 33 35 34 33 32 28 27 26 27 27 25
15 15 14 16 23 24 24 23 23 23 25 27 30 29 29 28 30 30 29 30 32 33 35 35 35 33 29 31 31 32 28 26 24 23 28 34 34 37 38 36 35 34 32 31 30 29 31 28 28
18 18 17 17 18 21 25 27 28 27 27 29 31 31 32 31 30 28 31 29 33 34 34 34 34 31 31 32 34 33 33 27 25 29 32 36 35 37 34 34 34 34 32 32 31 30 30 28 26
18 17 16 16 18 18 22 23 25 27 29 31 31 31 32 32 31 33 30 29 28 32 32 35 32 30 27 29 28 31 31 31 31 32 34 35 34 34 36 36 37 38 38 37 35 33 30 28 25
21 20 20 20 20 21 23 25 26 25 25 27 26 27 28 28 29 32 32 33 30 28 27 30 30 32 33 33 37 34 35 37 31 34 37 36 36 37 37 39 39 36 35 34 34 34 31 29 27
29 27 24 23 26 28 28 28 28 26 27 26 28 27 28 28 31 33 33 32 34 30 28 26 29 29 29 32 34 36 35 38 40 39 39 40 41 40 38 39 37 32 31 33 33 32 32 32 31
35 33 27 26 29 28 28 30 31 27 26 25 26 27 28 31 33 33 33 35 34 37 38 35 37 33 34 37 37 37 40 40 42 41 41 40 40 39 40 39 35 33 30 31 33 33 33 32 33
38 35 32 30 25 28 31 30 31 31 27 23 24 27 30 34 34 34 37 37 38 37 35 39 40 41 43 44 46 46 46 47 48 46 43 42 43 42 43 40 34 33 32 32 33 33 35 34 34
33 35 35 33 33 30 33 34 33 34 31 29 29 29 31 33 33 37 37 38 37 37 38 39 39 42 45 46 46 48 48 47 47 46 46 46 46 45 42 38 35 35 35 35 34 33 33 35 36
31 33 34 35 38 38 33 35 38 38 39 34 34 37 40 39 37 33 39 39 38 38 38 40 43 45 42 44 44 44 46 47 48 47 47 45 44 43 39 38 36 36 37 37 36 37 37 38 37
37 37 37 40 40 39 36 36 42 45 43 42 39 44 42 42 44 45 41 41 40 36 42 44 45 47 49 50 48 49 51 51 49 47 47 45 42 40 38 38 39 39 39 39 39 39 40 39 40
42 41 42 44 44 43 44 45 44 46 46 44 47 50 48 48 48 44 41 43 47 52 54 48 52 51 54 53 52 51 50 51 53 51 51 48 40 37 42 44 42 41 40 39 39 40 40 41 43
45 46 45 46 47 49 47 51 51 50 52 53 51 51 52 53 52 52 52 50 52 52 55 58 57 58 58 57 56 56 56 56 57 56 53 49 43 41 41 46 45 43 43 44 42 41 43 44 45
50 50 49 48 49 47 47 50 51 54 55 54 53 53 53 53 54 56 57 57 58 56 55 58 62 61 62 58 59 59 60 61 59 57 56 51 47 47 47 45 47 48 46 46 46 45 46 46 47
51 52 52 53 51 50 54 55 55 54 52 53 52 52 57 62 62 62 64 65 64 63 61 61 62 61 63 63 64 63 63 64 58 58 55 51 50 51 53 51 51 50 50 48 47 48 49 49 50
53 55 56 57 57 56 57 56 53 52 56 59 62 64 66 67 67 66 66 66 66 65 64 63 64 64 64 63 63 64 65 61 59 53 53 54 54 55 56 57 56 55 55 53 52 51 51 54 53
52 54 57 59 59 57 59 57 58 58 59 61 63 65 66 68 69 68 65 65 64 63 62 61 61 62 62 62 62 62 60 60 60 59 58 57 57 59 60 60 58 58 59 59 58 57 56 56 56
57 59 59 59 60 56 58 53 57 59 60 61 63 64 65 65 65 64 64 64 63 62 60 59 58 58 60 61 61 61 60 61 61 60 60 61 63 64 63 63 62 62 61 62 62 62 62 61 58
59 62 61 60 60 60 59 59 56 61 61 63 65 67 67 66 65 65 64 64 63 61 59 57 59 58 58 59 59 60 61 61 62 62 63 64 65 66 65 65 65 65 65 65 65 66 67 65 63
59 61 63 63 64 60 62 65 59 61 66 66 66 66 67 67 68 68 68 68 68 67 65 63 62 64 64 63 63 64 65 64 65 66 67 68 69 69 69 69 70 70 70 70 69 68 68 68 67
67 67 66 64 63 58 63 62 56 59 64 66 69 72 73 73 74 74 74 72 72 72 70 68 68 69 69 69 70 70 71 71 72 72 73 74 75 75 75 75 75 75 75 75 74 73 72 71 70
75 76 75 74 75 70 70 64 65 68 69 71 75 77 79 79 79 80 79 78 78 78 78 76 75 75 76 75 75 75 75 75 77 78 79 79 80 80 81 80 80 79 78 77 75 74 75 75 75
80 83 83 82 80 80 77 75 76 76 76 78 80 84 86 85 85 86 86 85 84 83 83 83 82 83 81 81 79 79 80 79 80 80 82 83 84 84 84 84 83 82 81 81 79 80 81 81 79
87 87 88 89 85 84 80 82 83 80 81 85 88 90 91 91 91 90 90 90 90 88 86 86 86 86 85 84 84 84 82 81 83 83 85 86 85 86 85 85 85 85 87 86 86 86 86 86 87
94 93 95 95 94 92 87 87 88 88 90 91 92 94 95 94 93 93 92 92 91 90 89 89 88 88 88 85 83 83 84 84 84 85 86 88 87 89 89 89 90 90 90 92 90 94 92 90 90
99 98 99 100 100 100 97 90 93 94 94 93 91 90 91 92 89 88 89 88 84 78 75 75 76 77 78 79 79 81 81 81 80 82 84 85 84 85 89 88 89 89 91 90 90 88 92 94 95
Wind_Direction
200 205 209 210 214 218 220 217 219 225 231 233 230 238 242 253 259 263 260 267 270 283 266 270 272 274 281 289 293 289 288 294 297 298 302 316 317 312 315 318 319 316 319 317 310 299 301 301 301
196 205 210 212 220 223 227 225 226 227 227 232 235 239 238 246 257 260 261 262 264 272 274 283 285 279 281 287 290 289 289 290 292 295 300 313 314 312 313 314 316 310 315 314 310 302 301 298 299
192 206 207 209 219 227 229 232 227 226 228 230 234 233 245 251 257 261 267 268 268 271 275 277 283 284 282 287 287 288 285 291 292 294 299 308 309 312 312 314 313 312 309 307 307 304 299 303 302
196 200 204 205 216 227 232 230 230 230 234 230 239 242 244 255 258 264 270 275 277 274 276 275 272 278 284 286 283 281 289 292 289 287 292 298 302 309 311 313 313 310 306 301 301 297 300 303 303
210 207 205 214 219 226 228 227 230 229 232 239 245 253 258 264 262 266 270 270 273 274 276 277 274 279 283 282 289 288 288 286 286 286 294 298 303 313 311 311 309 306 310 309 307 308 306 306 302
217 226 209 212 223 229 231 232 235 236 236 242 246 248 255 260 264 268 268 269 269 271 273 275 277 279 276 283 286 288 295 295 297 296 292 302 307 314 308 308 307 309 311 309 311 307 305 303 301
222 231 235 234 233 229 235 237 238 237 238 240 244 248 253 261 263 261 262 269 270 273 274 274 278 276 278 283 286 285 290 289 287 291 302 306 306 310 306 306 308 310 309 306 305 305 300 300 295
215 222 235 240 252 255 252 245 243 244 248 252 253 255 260 267 265 272 275 278 275 276 278 272 274 273 283 282 287 293 288 290 291 295 304 308 308 309 310 308 307 308 306 304 303 304 300 299 294
220 226 231 247 260 265 267 263 257 255 256 255 259 259 265 268 268 273 276 272 267 269 272 275 276 277 282 286 286 290 291 289 294 298 302 304 306 309 310 307 307 304 304 305 303 301 299 294 291
222 231 240 247 260 257 261 260 256 251 255 258 256 264 271 274 279 279 276 271 264 269 274 285 283 282 282 284 285 290 288 292 292 296 298 302 304 305 303 303 304 303 304 305 306 306 303 299 293
228 234 240 242 256 251 251 260 262 254 254 258 262 267 269 274 276 279 278 277 273 267 267 272 276 277 279 281 288 288 289 291 291 291 294 296 299 302 302 301 300 298 301 304 307 307 306 304 298
229 236 242 238 243 246 248 252 256 257 253 251 256 262 267 271 272 276 278 278 276 274 276 277 279 282 283 284 284 286 289 292 295 294 294 295 299 299 301 298 293 295 299 301 303 306 308 306 301
238 231 233 236 231 237 244 245 253 257 257 255 256 264 264 268 274 272 274 274 277 278 280 282 278 284 281 281 281 285 287 288 290 289 293 297 299 297 295 293 293 296 298 299 301 304 306 305 303
233 227 236 245 241 245 249 253 254 256 259 257 267 267 268 270 272 279 273 272 277 281 283 284 284 288 279 283 287 287 285 284 286 287 290 292 294 292 292 292 293 295 296 296 299 302 303 304 302
240 242 246 248 249 255 254 255 255 254 260 264 266 274 271 273 271 270 270 265 273 276 285 285 289 289 286 288 289 287 286 287 287 288 291 291 289 289 289 289 293 295 295 295 296 300 301 301 301
244 248 249 249 251 254 255 252 254 256 259 268 272 274 274 273 270 265 266 262 266 275 279 277 284 285 286 284 285 287 289 289 289 290 291 290 284 286 289 290 290 291 293 294 295 298 297 298 298
246 249 251 252 253 256 256 260 263 268 269 270 271 271 272 276 276 275 275 272 271 275 279 280 281 284 285 285 284 286 288 290 290 290 289 290 285 286 282 285 287 290 292 291 291 292 293 295 297
250 253 253 255 256 256 258 260 263 266 268 271 270 271 273 275 278 280 281 282 282 281 282 283 282 282 283 281 281 284 286 288 288 286 286 286 285 286 286 287 288 289 291 291 290 291 292 292 294
253 254 258 258 258 260 261 263 265 266 269 270 270 271 272 274 277 278 278 279 280 281 281 280 281 281 279 278 280 282 283 286 285 283 282 281 282 285 287 288 287 288 289 290 289 288 290 291 291
258 257 259 260 260 262 263 265 266 266 269 271 273 272 274 276 275 276 278 278 278 279 279 278 277 277 277 278 280 281 283 283 283 279 278 278 280 282 283 287 288 288 290 290 289 288 289 289 289
256 258 257 258 260 261 263 265 268 268 268 268 270 272 273 274 276 276 277 277 278 278 278 278 279 279 279 277 277 278 280 280 280 281 279 278 279 280 282 284 284 286 286 289 289 288 287 287 286
258 258 259 260 261 260 262 261 265 267 268 270 272 272 274 276 276 277 277 276 276 276 276 275 274 274 276 279 280 279 278 278 278 277 277 279 280 280 282 283 285 286 287 288 288 288 288 287 285
261 261 260 261 262 263 263 262 263 268 268 269 270 271 273 274 275 275 275 276 276 277 276 276 276 274 271 271 272 273 273 274 275 276 277 277 278 280 282 283 284 285 285 285 285 285 286 286 283
265 263 261 260 261 261 263 262 262 264 267 269 270 271 272 274 273 273 274 275 276 277 278 278 277 279 278 277 276 275 275 275 276 276 277 278 278 280 281 282 283 284 285 285 285 284 283 282 281
266 264 263 262 261 261 261 263 263 264 267 268 270 271 271 272 273 273 274 275 276 277 279 280 279 277 277 278 278 278 279 280 279 279 279 281 282 283 283 283 283 283 283 283 282 281 280 280 278
266 266 266 265 265 263 264 267 265 264 265 266 268 270 271 272 272 274 276 277 278 279 280 280 280 279 280 279 279 280 279 279 280 281 282 283 283 283 282 281 280 280 280 279 278 279 277 276 275
265 265 266 266 265 265 267 266 265 265 266 267 268 269 271 272 272 274 276 276 277 278 279 279 279 280 279 278 278 276 277 277 278 278 279 279 280 280 280 280 279 279 278 277 277 276 275 273 272
262 263 265 266 265 265 265 267 266 265 267 267 268 268 270 272 274 274 274 275 276 277 277 277 277 276 275 275 275 275 276 276 277 277 278 278 279 279 280 279 279 279 279 279 278 276 275 274 273
264 263 263 263 265 266 263 264 265 265 265 266 267 268 270 271 273 274 274 274 274 275 276 276 277 277 277 277 277 277 276 276 277 278 279 281 280 280 280 280 280 279 278 277 276 275 274 273 273
262 264 265 266 265 265 265 265 265 264 263 264 266 267 268 269 270 271 271 273 274 275 277 278 279 280 281 280 279 278 278 280 281 280 279 278 280 280 280 281 281 281 281 282 283 284 283 283 284
Height
10937 10939 10940 10944 10947 10948 10951 10955 10960 10962 10963 10963 10964 10965 10967 10969 10971 10972 10973 10974 10975 10975 10975 10975 10975 10975 10976 10976 10975 10975 10974 10974 10973 10971 10970 10967 10964 10962 10958 10956 10955 10952 10950 10948 10945 10941 10939 10937 10935
10935 10937 10938 10942 10944 10946 10949 10953 10955 10957 10959 10960 10961 10963 10965 10967 10968 10969 10970 10971 10972 10972 10972 10971 10972 10972 10972 10971 10971 10970 10970 10969 10967 10967 10965 10963 10960 10958 10954 10952 10951 10947 10945 10942 10940 10938 10936 10933 10930
10934 10934 10937 10939 10941 10942 10946 10948 10951 10952 10954 10956 10957 10959 10961 10963 10964 10966 10967 10967 10968 10967 10967 10967 10967 10967 10967 10966 10966 10967 10966 10964 10962 10962 10960 10958 10956 10953 10950 10947 10945 10942 10939 10937 10935 10933 10930 10928 10925
10932 10932 10935 10937 10938 10939 10942 10945 10949 10951 10952 10953 10954 10955 10958 10959 10959 10960 10960 10961 10962 10962 10962 10962 10962 10962 10962 10961 10961 10962 10961 10959 10958 10957 10956 10953 10951 10948 10945 10941 10938 10936 10934 10932 10930 10928 10926 10923 10921
10930 10930 10933 10935 10935 10937 10940 10943 10945 10946 10949 10949 10951 10952 10954 10954 10955 10954 10954 10956 10956 10957 10957 10957 10956 10956 10956 10957 10956 10957 10956 10954 10952 10951 10950 10949 10946 10944 10940 10936 10932 10929 10928 10927 10925 10924 10922 10918 10916
10928 10927 10930 10932 10932 10934 10936 10939 10941 10943 10945 10945 10946 10948 10949 10949 10950 10949 10949 10950 10951 10951 10951 10951 10951 10950 10950 10950 10950 10951 10950 10948 10947 10946 10945 10944 10941 10939 10936 10931 10927 10924 10923 10922 10920 10919 10916 10915 10912
10926 10925 10926 10928 10928 10930 10932 10935 10937 10939 10940 10941 10943 10944 10944 10945 10945 10945 10945 10946 10945 10945 10944 10944 10944 10944 10944 10944 10944 10944 10943 10942 10941 10941 10939 10937 10936 10934 10930 10927 10923 10920 10917 10916 10914 10912 10910 10909 10907
10924 10923 10923 10923 10924 10926 10927 10930 10931 10933 10934 10936 10936 10937 10937 10938 10939 10939 10940 10940 10939 10939 10939 10939 10939 10939 10939 10938 10937 10937 10935 10935 10934 10934 10933 10931 10929 10927 10924 10922 10919 10914 10911 10909 10908 10906 10904 10902 10901
10921 10920 10920 10920 10921 10921 10922 10924 10925 10928 10929 10930 10930 10931 10931 10932 10934 10934 10934 10935 10934 10934 10934 10934 10933 10932 10932 10931 10931 10930 10928 10929 10928 10927 10926 10925 10922 10920 10918 10915 10912 10909 10904 10901 10900 10898 10898 10896 10895
10917 10916 10917 10918 10917 10918 10918 10919 10920 10924 10924 10925 10926 10926 10926 10928 10927 10928 10928 10928 10929 10928 10927 10927 10927 10926 10925 10925 10924 10923 10922 10921 10920 10919 10918 10917 10915 10914 10911 10909 10904 10902 10899 10895 10893 10891 10890 10889 10889
10911 10911 10913 10914 10912 10912 10913 10913 10913 10916 10919 10920 10921 10921 10921 10922 10922 10922 10921 10921 10921 10921 10921 10921 10920 10920 10919 10918 10917 10915 10914 10913 10912 10911 10910 10909 10908 10906 10903 10901 10897 10894 10893 10890 10886 10884 10883 10882 10880
10905 10907 10907 10908 10908 10906 10907 10907 10908 10910 10914 10916 10916 10916 10917 10917 10917 10916 10915 10915 10914 10914 10913 10913 10913 10912 10911 10910 10908 10907 10906 10905 10903 10902 10901 10900 10899 10897 10895 10893 10891 10887 10885 10883 10881 10878 10875 10874 10873
10897 10900 10899 10899 10900 10900 10901 10902 10903 10902 10905 10908 10910 10911 10911 10911 10911 10910 10909 10908 10907 10905 10905 10905 10904 10904 10902 10902 10900 10899 10897 10896 10895 10893 10892 10891 10889 10888 10886 10884 10882 10880 10877 10875 10873 10871 10869 10867 10865
10888 10891 10892 10892 10893 10895 10896 10898 10896 10896 10898 10901 10902 10902 10902 10902 10902 10903 10901 10900 10899 10897 10896 10896 10895 10895 10894 10893 10891 10889 10889 10887 10886 10884 10883 10882 10880 10879 10877 10875 10874 10873 10870 10867 10865 10863 10862 10859 10858
10881 10883 10885 10885 10886 10887 10890 10891 10888 10889 10890 10893 10893 10893 10894 10895 10895 10894 10894 10893 10891 10889 10887 10887 10885 10885 10884 10882 10881 10880 10879 10877 10876 10875 10873 10872 10871 10869 10868 10866 10864 10863 10861 10859 10856 10854 10853 10851 10849
10872 10874 10875 10876 10878 10879 10881 10879 10880 10881 10883 10885 10886 10882 10882 10882 10884 10885 10884 10883 10884 10882 10880 10877 10876 10874 10873 10872 10870 10869 10868 10867 10865 10863 10863 10861 10860 10860 10858 10857 10856 10854 10852 10850 10848 10846 10843 10842 10841
10861 10863 10866 10867 10869 10869 10872 10870 10871 10872 10872 10874 10875 10871 10871 10870 10871 10871 10871 10873 10875 10874 10871 10868 10865 10863 10860 10859 10857 10857 10856 10855 10853 10852 10851 10849 10848 10848 10848 10847 10846 10845 10843 10842 10840 10839 10835 10833 10832
10853 10854 10855 10855 10856 10859 10860 10858 10860 10860 10861 10862 10862 10860 10860 10858 10857 10856 10856 10857 10857 10860 10861 10856 10854 10853 10849 10847 10846 10845 10844 10842 10841 10839 10838 10837 10836 10836 10835 10836 10835 10833 10832 10831 10829 10828 10825 10822 10821
10843 10844 10844 10843 10845 10846 10846 10848 10849 10850 10850 10848 10847 10848 10847 10847 10846 10843 10844 10844 10843 10843 10845 10844 10839 10838 10836 10834 10832 10832 10831 10830 10829 10827 10826 10826 10825 10823 10823 10822 10822 10821 10820 10818 10817 10816 10814 10811 10809
10829 10832 10831 10832 10832 10835 10833 10836 10839 10839 10837 10835 10833 10832 10831 10830 10830 10832 10830 10828 10829 10828 10829 10828 10826 10825 10822 10819 10819 10817 10816 10815 10814 10815 10814 10813 10812 10811 10809 10808 10807 10806 10804 10805 10804 10804 10802 10799 10796
10817 10816 10816 10817 10821 10825 10823 10827 10827 10825 10824 10823 10820 10818 10815 10814 10815 10815 10816 10814 10814 10814 10813 10811 10810 10809 10807 10806 10806 10804 10803 10801 10799 10798 10798 10797 10796 10796 10796 10794 10793 10791 10789 10787 10787 10788 10788 10786 10784
10802 10801 10802 10804 10805 10811 10809 10818 10813 10812 10810 10808 10806 10802 10798 10799 10799 10799 10798 10799 10799 10799 10801 10801 10800 10798 10794 10791 10790 10790 10789 10787 10785 10784 10782 10781 10780 10780 10781 10780 10778 10777 10774 10771 10769 10768 10767 10768 10768
10787 10787 10789 10790 10791 10794 10798 10799 10803 10794 10795 10792 10788 10786 10784 10784 10783 10783 10782 10782 10783 10783 10785 10785 10783 10783 10783 10781 10779 10776 10773 10772 10771 10770 10768 10766 10765 10764 10763 10762 10761 10760 10758 10756 10753 10751 10750 10750 10749
10769 10770 10771 10774 10775 10784 10781 10779 10790 10785 10775 10774 10772 10769 10766 10766 10765 10766 10765 10765 10766 10765 10767 10769 10769 10766 10765 10764 10762 10760 10758 10756 10754 10753 10751 10750 10748 10747 10746 10744 10743 10742 10741 10740 10738 10737 10735 10732 10731
10749 10749 10752 10757 10759 10769 10762 10764 10776 10770 10764 10760 10754 10750 10748 10749 10746 10745 10748 10749 10749 10750 10751 10753 10752 10750 10749 10747 10745 10743 10741 10739 10737 10735 10733 10732 10731 10729 10727 10726 10726 10725 10724 10723 10721 10719 10718 10716 10714
10731 10729 10733 10736 10738 10747 10746 10756 10757 10752 10749 10745 10737 10732 10729 10730 10729 10726 10729 10730 10730 10731 10731 10732 10732 10732 10731 10731 10731 10727 10726 10723 10720 10717 10715 10713 10711 10709 10708 10706 10706 10706 10705 10704 10702 10701 10698 10696 10694
10712 10708 10710 10714 10719 10721 10730 10735 10733 10731 10729 10726 10723 10716 10709 10709 10709 10708 10708 10708 10709 10711 10712 10711 10711 10710 10710 10709 10709 10707 10705 10704 10702 10699 10697 10695 10691 10689 10687 10686 10685 10683 10682 10681 10680 10677 10675 10673 10671
10686 10687 10686 10685 10694 10699 10711 10706 10705 10710 10709 10704 10698 10694 10691 10692 10691 10690 10689 10688 10687 10689 10692 10691 10690 10687 10687 10686 10687 10686 10685 10682 10680 10678 10676 10674 10672 10668 10665 10663 10662 10659 10657 10655 10654 10651 10649 10647 10646
10660 10663 10662 10661 10665 10670 10683 10684 10684 10685 10681 10678 10677 10673 10672 10671 10672 10671 10670 10667 10666 10668 10669 10667 10665 10664 10664 10664 10664 10663 10661 10660 10660 10658 10653 10650 10648 10644 10641 10639 10637 10634 10632 10627 10626 10623 10622 10620 10617
10632 10634 10635 10634 10636 10640 10649 10667 10659 10657 10653 10654 10656 10653 10651 10650 10650 10649 10648 10647 10647 10647 10647 10646 10644 10642 10641 10640 10639 10637 10636 10636 10635 10632 10630 10627 10624 10619 10614 10611 10607 10605 10601 10598 10594 10591 10589 10586 10582